Regional Weather Roundup
Issued by NWS

Home | Current Version | Previous Version | Graphics & Text | Print | Product List | Glossary On
Versions: 1 2 3 4 5 6 7 8 9 10 11 12 13 14 15 16 17 18 19 20 21 22 23 24 25 26 27 28 29 30 31 32 33 34 35 36 37 38 39 40 41 42 43 44 45 46 47 48 49
000
ASUS45 KBOU 220810
RWRCO

WEATHER ROUNDUP FOR COLORADO
NATIONAL WEATHER SERVICE PUEBLO CO
200 AM MDT SUN APR 22 2018

NOTE: "FAIR" INDICATES FEW OR NO CLOUDS BELOW 12000 FEET WITH NO
SIGNIFICANT WEATHER AND/OR OBSTRUCTIONS TO VISIBILITY.

COZ001>005-013-030-031-220900-
...NORTHWEST COLORADO...

CITY           SKY/WX    TMP DP  RH WIND       PRES   REMARKS
CRAIG          CLEAR     34  31  88 CALM      30.22R
HAYDEN         CLEAR     37  33  85 E10       30.24S
MEEKER         CLEAR     34  30  85 NE5       30.24R WCI  30
RABBIT EARS PA NOT AVBL
STEAMBOAT SPGS FAIR      32  32 100 CALM      30.24S
WALDEN         FAIR      27  25  93 SE9       30.25S WCI  17
$$

COZ006>008-011-220900-
...WEST CENTRAL VALLEYS...

CITY           SKY/WX    TMP DP  RH WIND       PRES   REMARKS
GRAND JUNCTION CLEAR     47  36  65 SE13      30.18S
MONTROSE       CLEAR     39  31  72 S6        30.25R
EAGLE          CLEAR     31  30  96 S3        30.29R
RIFLE          CLEAR     37  34  89 CALM      30.24S
DELTA          NOT AVBL
NUCLA          FAIR      39  28  65 SE7       30.25S
$$

COZ017>023-064>068-220900-
...SOUTHWEST COLORADO...

CITY           SKY/WX    TMP DP  RH WIND       PRES   REMARKS
DURANGO        CLEAR     40  17  39 CALM      30.19S
CORTEZ         CLEAR     35  24  64 NE7       30.21R WCI  29
PAGOSA SPRINGS FAIR      39  15  37 N5        30.24F
TELLURIDE      CLEAR     32  25  75 SE5       30.32F WCI  28
WOLF CREEK PAS CLEAR     25  14  63 N12G17    30.39F WCI  14
$$

COZ009-010-012-014-032>034-037-058>063-220900-
...CENTRAL COLORADO...

CITY           SKY/WX    TMP DP  RH WIND       PRES   REMARKS
ASPEN          CLEAR     29  26  89 S6        30.27S WCI  23
BUENA VISTA    FAIR      32  28  85 CALM      30.25R
COPPER MTN     NOT AVBL
BERTHOUD PASS  CLOUDY    23  12  63 NW29      30.32R WCI   6
COTTONWOOD PAS CLEAR     39  27  60 W14       30.28S
GUNNISON       CLEAR     29  26  89 CALM      30.30R
KREMMLING      PTCLDY    34  32  93 CALM      30.28R
LEADVILLE      PTCLDY    24  22  91 NE8       30.29R WCI  15
MONARCH PASS     N/A     23  21  93 W12G18    30.45R WCI  12
SALIDA         FAIR      31  29  92 CALM      30.32R
SUNLIGHT       CLEAR     28  27  93 W8        30.38R WCI  20
WILKERSON PASS PTCLDY    28  19  69 NW9G20    30.30F WCI  20
$$

COZ069>075-220900-
...SAN LUIS VALLEY/SANGRE DE CRISTO MOUNTAINS...

CITY           SKY/WX    TMP DP  RH WIND       PRES   REMARKS
ALAMOSA        CLEAR     35  25  66 N5        30.23S WCI  31
DEL NORTE      FAIR      35  21  58 W10       30.26R WCI  27
LA VETA PASS   PTCLDY    30  25  80 SW16      30.38S WCI  19
SAGUACHE       NOT AVBL
$$

COZ035-036-038>040-220900-
...NORTHERN COLORADO FRONT RANGE...

CITY           SKY/WX    TMP DP  RH WIND       PRES   REMARKS
DENVER INTL AP CLEAR     35  31  85 SW12      30.14F WCI  27
DMNS CITY PARK NOT AVBL
AURORA         PTCLDY    35  34  98 S12       30.14F WCI  27
FRONT RANGE AP FAIR      34  32  92 SE6       30.16R WCI  29
ERIE MUNI ARPT FAIR      32  31  96 CALM      30.20F FOG
BOULDER MUN AP FAIR      32  32 100 CALM      30.15R FOG
CENTENNIAL     PTCLDY    35  32  88 SW3       30.15F
BROOMFIELD     CLEAR     34  32  93 W6        30.15F WCI  29
LOVELAND       CLEAR     31  29  92 CALM      30.15F FOG
LONGMONT       FAIR      32  30  94 S5        30.17S FOG     WCI  27
$$

COZ041-046-047-076>085-087-088-220900-
...PIKES PEAK/PALMER DIVIDE AND SOUTHERN FOOTHILLS...

CITY           SKY/WX    TMP DP  RH WIND       PRES   REMARKS
COLO. SPRINGS  CLOUDY    36  33  89 SW5       30.19F
A. F. ACADEMY  CLOUDY    35  33  89 CALM      30.18F
SCHRIEVER AFB  NOT AVBL
CHEYENNE MTN   NOT AVBL
ELLICOTT         N/A    N/A N/A N/A CALM      30.18S
FALCON         CLOUDY    33  32  95 W7        30.19F WCI  27
FORT CARSON    CLOUDY    37  34  89 S5        30.17F
LIMON          CLOUDY    36  34  92 SE7       30.19F
MONUMENT HILL  CLEAR     32  30  93 SW12      30.18S WCI  23
CANON CITY     FAIR      36  34  93 N6        30.18F
WALSENBURG     FAIR      32  32 100 W6        30.18S WCI  26
TRINIDAD       CLOUDY    38  35  89 S3        30.17F
$$

COZ042>045-048>051-090-091-220900-
...NORTHEAST COLORADO...

CITY           SKY/WX    TMP DP  RH WIND       PRES   REMARKS
GREELEY ARPT   CLEAR     33  32  96 E5        30.17S FOG     WCI  29
AKRON          MOCLDY    34  34 100 S8        30.16F WCI  27
BURLINGTON     CLEAR     33  33 100 CALM      30.19F FOG
WRAY           CLOUDY    34  34 100 W3        30.20F FOG
YUMA           NOT AVBL
STERLING       NOT AVBL
HOLYOKE        CLOUDY    37  36  93 SW3       30.21S FOG
FORT MORGAN    CLOUDY    37  33  89 E6        30.18F
$$

COZ086-089-092>099-220900-
...SOUTHEAST COLORADO...

CITY           SKY/WX    TMP DP  RH WIND       PRES   REMARKS
PUEBLO         PTCLDY    39  36  89 E5        30.18F
LA JUNTA       CLOUDY    42  40  92 E7        30.20S
LAMAR          PTCLDY    37  34  89 CALM      30.19F
SPRINGFIELD      N/A     37  37 100 SW6       30.19F
$$





USA.gov is the U.S. government's official web portal to all federal, state and local government web resources and services.